Waarnemingen

Advertentie
Mijn weer
Ile Rousse, Frankrijk (7753): temperatuur & dauwpunt: 17.01.2018 08:00:00 - 23.01.2018 08:00:00 (CET)Ile Rousse, Frankrijk (7753): windsnelheid & windstoten: 17.01.2018 08:00:00 - 23.01.2018 08:00:00 (CET)Ile Rousse, Frankrijk (7753): windrichting: 17.01.2018 08:00:00 - 23.01.2018 08:00:00 (CET)Ile Rousse, Frankrijk (7753): luchtdruk: 17.01.2018 08:00:00 - 23.01.2018 08:00:00 (CET)Ile Rousse, Frankrijk (7753): zicht: 17.01.2018 08:00:00 - 23.01.2018 08:00:00 (CET)Ile Rousse, Frankrijk (7753): neerslag: 17.01.2018 08:00:00 - 23.01.2018 08:00:00 (CET)
Datum & Tijd tt [°C] td [°C] ff [km/u] ff [kn] fx [km/u] fx [kn] dd ppp [hPa] vv [km] rr [mm]
23.01.2018 08:00:00 11,6 9,7 4 2 6 3 W 1018,3 - 0,0
23.01.2018 07:00:00 11,4 9,5 4 2 11 6 O 1017,5 18 0,0
23.01.2018 06:00:00 11,3 9,4 8 5 14 8 O 1016,3 - 0,0
23.01.2018 05:00:00 12,0 9,7 10 5 16 9 ONO 1016,1 - 0,0
23.01.2018 04:00:00 12,7 7,8 9 5 27 15 W 1015,9 20 0,0
23.01.2018 03:00:00 13,1 8,4 19 11 39 21 W 1014,7 - 0,0
23.01.2018 02:00:00 13,2 7,4 23 12 61 33 WZW 1014,0 - 0,0
23.01.2018 01:00:00 14,2 7,5 37 20 85 46 WZW 1013,2 - 0,0
23.01.2018 00:00:00 14,4 7,4 49 27 88 47 ZW 1012,7 - 0,0
22.01.2018 23:00:00 14,6 7,4 54 29 94 51 ZW 1012,5 - 0,0
22.01.2018 22:00:00 14,9 7,7 58 31 110 59 ZW 1012,8 - 0,0
22.01.2018 21:00:00 15,1 7,4 67 36 100 54 ZW 1012,1 - 0,0
22.01.2018 20:00:00 15,8 6,5 61 33 107 58 ZW 1011,5 - 0,0
22.01.2018 19:00:00 16,5 6,9 65 35 105 57 ZW 1010,3 18 0,0
22.01.2018 18:00:00 16,4 7,1 51 28 84 45 ZW 1011,1 - 0,0
22.01.2018 17:00:00 14,3 9,9 27 14 43 23 ZW 1012,7 - 0,0
22.01.2018 16:00:00 12,8 10,7 20 11 43 23 WZW 1013,6 18 0,0
22.01.2018 15:00:00 13,2 11,4 23 12 42 23 W 1014,2 - 0,0
22.01.2018 14:00:00 13,4 11,1 27 15 61 33 W 1013,7 - 0,0
22.01.2018 13:00:00 14,5 9,3 29 15 51 28 WZW 1013,7 - 0,0
22.01.2018 12:00:00 14,5 9,1 26 14 48 26 W 1013,8 - 0,0
22.01.2018 11:00:00 15,2 7,2 28 15 61 33 WZW 1014,0 - 0,0
22.01.2018 10:00:00 14,6 7,2 35 19 61 33 WZW 1013,4 20 0,0
22.01.2018 09:00:00 14,1 6,2 29 15 48 26 ZW 1012,9 - 0,0
22.01.2018 08:00:00 13,5 4,9 10 5 27 15 WZW 1012,6 - 0,0
22.01.2018 07:00:00 13,4 5,3 11 6 37 20 WZW 1012,5 18 0,0
22.01.2018 06:00:00 13,7 5,6 11 6 44 24 WZW 1012,0 - 0,0
22.01.2018 05:00:00 14,5 5,6 25 14 42 23 ZW 1011,6 - 0,0
22.01.2018 04:00:00 14,9 4,3 20 11 38 21 Z 1011,4 20 0,0
22.01.2018 03:00:00 14,5 1,0 5 3 34 18 O 1011,8 - 0,0
22.01.2018 02:00:00 15,2 5,7 23 12 53 29 ZW 1011,7 - 0,0
22.01.2018 01:00:00 15,5 5,7 34 18 67 36 ZZW 1011,5 - 0,0
22.01.2018 00:00:00 15,5 5,1 33 18 53 29 ZZW 1011,5 - 0,0
21.01.2018 23:00:00 15,3 4,3 24 13 48 26 ZZW 1010,9 - 0,0
21.01.2018 22:00:00 15,5 4,5 28 15 59 32 ZW 1010,9 - 0,0
21.01.2018 21:00:00 15,8 4,2 34 19 56 30 ZW 1010,6 - 0,0
21.01.2018 20:00:00 15,4 3,5 20 11 48 26 ZZW 1010,3 - 0,0
21.01.2018 19:00:00 15,8 3,9 25 13 51 28 ZZW 1009,7 17 0,0
21.01.2018 18:00:00 14,4 6,2 23 13 41 22 ZW 1009,0 - 0,0
21.01.2018 17:00:00 15,1 6,9 14 7 31 17 WZW 1008,5 - 0,0
21.01.2018 16:00:00 16,2 7,4 17 9 32 18 ZW 1008,2 20 0,0
21.01.2018 15:00:00 16,9 6,7 13 7 32 17 WZW 1007,6 - 0,0
21.01.2018 14:00:00 17,7 6,8 5 3 25 14 W 1006,8 - 0,0
21.01.2018 13:00:00 19,0 5,4 5 3 29 16 NW 1006,6 18 0,0
21.01.2018 12:00:00 18,9 3,5 25 14 72 39 ZW 1006,0 - 0,0
21.01.2018 11:00:00 16,4 5,4 46 25 80 43 ZW 1006,0 - 0,0
21.01.2018 10:00:00 15,4 6,1 47 26 86 47 ZW 1005,0 18 0,0
21.01.2018 09:00:00 14,6 7,2 54 29 109 59 ZW 1004,4 - 0,0
21.01.2018 08:00:00 14,5 7,5 64 35 120 65 ZW 1003,2 - 0,0
21.01.2018 07:00:00 14,7 8,0 82 44 128 69 ZW 1002,8 15 0,0
21.01.2018 06:00:00 14,9 8,4 78 42 135 73 ZW 1002,5 - 0,0
21.01.2018 05:00:00 14,8 8,7 94 51 151 82 ZW 1001,5 - 0,0
21.01.2018 04:00:00 14,9 8,8 85 46 143 77 ZW 1002,0 - 0,0
21.01.2018 03:00:00 14,5 9,1 85 46 148 80 ZW 1002,4 - 0,0
21.01.2018 02:00:00 13,8 9,2 82 44 135 73 ZW 1003,4 - 0,0
21.01.2018 01:00:00 13,5 9,0 87 47 133 72 ZW 1004,3 - 0,0
21.01.2018 00:00:00 12,7 8,6 86 47 129 69 ZW 1005,6 - 0,0
20.01.2018 23:00:00 12,1 8,8 83 45 128 69 ZW 1006,3 - 0,0
20.01.2018 22:00:00 11,0 8,4 83 45 117 63 ZW 1007,7 - 0,0
20.01.2018 21:00:00 10,3 7,7 76 41 114 62 ZW 1008,7 - 0,0
20.01.2018 20:00:00 9,9 6,4 69 37 105 57 ZW 1010,0 18 0,0
20.01.2018 19:00:00 10,2 4,6 72 39 109 59 ZW 1010,8 - 0,0
20.01.2018 18:00:00 9,9 4,3 74 40 114 62 ZW 1010,9 - 0,0
20.01.2018 17:00:00 11,7 -0,2 69 38 111 60 ZW 1010,8 - 0,0
20.01.2018 16:00:00 11,2 1,4 59 32 97 52 WZW 1011,0 18 0,0
20.01.2018 15:00:00 11,2 2,2 52 28 85 46 WZW 1011,4 - 0,0
20.01.2018 14:00:00 11,4 2,1 41 22 74 40 WZW 1012,1 - 0,0
20.01.2018 13:00:00 11,5 2,0 39 21 65 35 WZW 1013,0 18 0,0
20.01.2018 12:00:00 11,9 0,9 39 21 64 35 WZW 1013,7 - 0,0
20.01.2018 11:00:00 11,7 1,6 31 17 58 31 WZW 1014,4 - 0,0
20.01.2018 10:00:00 10,9 3,2 32 18 55 30 WZW 1014,4 20 0,0
20.01.2018 09:00:00 10,3 2,1 27 14 53 29 WZW 1014,5 - 0,0
20.01.2018 08:00:00 10,2 1,8 32 17 51 28 WZW 1014,3 - 0,0
20.01.2018 07:00:00 10,6 2,2 31 17 61 33 WZW 1013,9 15 0,0
20.01.2018 06:00:00 10,9 2,5 32 18 68 37 WZW 1013,4 - 0,0
20.01.2018 05:00:00 10,9 2,5 41 22 69 37 ZW 1012,7 - 0,0
20.01.2018 04:00:00 11,4 2,7 41 22 72 39 WZW 1012,6 - 0,0
20.01.2018 03:00:00 11,3 3,6 39 21 72 39 WZW 1013,1 - 0,0
20.01.2018 02:00:00 11,6 2,9 41 22 71 38 WZW 1013,2 - 0,0
20.01.2018 01:00:00 11,6 3,4 41 22 69 38 ZW 1013,4 - 0,0
20.01.2018 00:00:00 11,7 2,9 42 23 69 37 ZW 1013,2 - 0,0
19.01.2018 23:00:00 12,0 3,5 44 24 83 45 WZW 1013,1 - 0,0
19.01.2018 22:00:00 12,2 3,7 55 30 86 47 ZW 1012,0 - 0,0
19.01.2018 21:00:00 12,5 4,0 55 30 88 47 ZW 1011,9 - 0,0
19.01.2018 20:00:00 12,5 3,7 61 33 90 49 ZW 1011,6 - 0,0
19.01.2018 19:00:00 12,4 3,9 54 29 98 53 ZW 1012,2 15 0,0
19.01.2018 18:00:00 12,7 3,4 61 33 96 52 ZW 1010,8 - 0,0
19.01.2018 17:00:00 12,7 4,6 63 34 104 56 WZW 1009,9 - 0,0
19.01.2018 16:00:00 13,6 3,9 67 36 109 59 ZW 1008,9 - 0,0
19.01.2018 15:00:00 15,0 1,8 71 39 119 64 ZW 1008,1 - 0,0
19.01.2018 14:00:00 15,6 5,8 69 38 119 64 ZW 1008,4 - 0,0
19.01.2018 13:00:00 16,1 3,5 76 41 130 70 ZW 1008,4 15 0,0
19.01.2018 12:00:00 15,4 5,6 89 48 129 69 ZW 1008,3 - 0,0
19.01.2018 11:00:00 14,7 6,3 74 40 122 66 ZW 1009,1 - 0,0
19.01.2018 10:00:00 14,4 5,7 69 37 110 60 ZW 1009,4 18 0,0
19.01.2018 09:00:00 14,1 4,7 64 34 113 61 ZW 1009,7 - 0,0
19.01.2018 08:00:00 13,5 4,9 68 37 111 60 ZW 1009,2 - 0,0
19.01.2018 07:00:00 13,5 4,9 64 35 107 58 ZW 1009,9 12 0,0
19.01.2018 06:00:00 13,4 5,3 61 33 121 65 ZW 1009,5 - 0,0
19.01.2018 05:00:00 12,6 6,0 80 43 124 67 ZW 1009,7 - 0,0
19.01.2018 04:00:00 12,5 6,1 80 43 131 71 ZW 1010,2 18 0,0
19.01.2018 03:00:00 12,6 5,3 82 45 125 68 ZW 1010,6 - 0,0
19.01.2018 02:00:00 12,8 5,2 81 44 122 66 ZW 1010,5 - 0,0
19.01.2018 01:00:00 12,7 5,4 69 37 114 62 ZW 1010,9 - 0,0
19.01.2018 00:00:00 13,2 4,6 74 40 128 69 ZW 1011,2 - 0,0
18.01.2018 23:00:00 12,9 5,3 77 42 119 64 ZW 1012,0 - 0,0
18.01.2018 22:00:00 12,9 5,1 77 42 126 68 ZW 1012,7 - 0,0
18.01.2018 21:00:00 12,0 5,6 82 44 130 70 ZW 1012,8 - 0,0
18.01.2018 20:00:00 11,9 6,2 85 46 129 69 ZW 1013,1 - 0,0
18.01.2018 19:00:00 11,7 6,2 86 46 140 76 ZW 1013,9 12 0,0
18.01.2018 18:00:00 11,9 6,0 82 45 137 74 ZW 1013,6 - 0,0
18.01.2018 17:00:00 12,1 4,8 86 46 139 75 ZW 1013,9 - 0,0
18.01.2018 16:00:00 12,8 4,2 81 44 138 75 ZW 1014,2 15 0,0
18.01.2018 15:00:00 13,3 3,4 86 47 135 73 ZW 1014,3 - 0,0
18.01.2018 14:00:00 13,8 2,7 84 45 125 67 ZW 1014,5 - 0,0
18.01.2018 13:00:00 13,4 3,2 69 38 116 62 ZW 1015,6 15 0,0
18.01.2018 12:00:00 12,6 3,3 63 34 109 59 WZW 1017,4 - 0,0
18.01.2018 11:00:00 12,2 2,6 63 34 111 60 ZW 1018,1 - 0,0
18.01.2018 10:00:00 11,0 1,8 56 30 96 52 ZW 1018,4 - 0,0
18.01.2018 09:00:00 10,2 1,3 56 30 93 50 WZW 1018,4 - 0,0
18.01.2018 08:00:00 9,6 0,2 57 31 94 51 ZW 1017,6 - 0,0
18.01.2018 07:00:00 9,3 -0,3 51 28 84 46 ZW 1017,7 18 0,0
18.01.2018 06:00:00 9,4 -0,5 53 29 92 50 ZW 1017,8 - 0,0
18.01.2018 05:00:00 9,2 -0,7 46 25 73 39 ZW 1017,4 - 0,0
18.01.2018 04:00:00 9,3 -0,9 42 23 73 40 ZW 1018,2 18 0,0
18.01.2018 03:00:00 9,3 -1,2 41 22 68 37 ZW 1019,1 - 0,0
18.01.2018 02:00:00 9,3 -1,2 35 19 54 29 ZW 1018,1 - 0,0
18.01.2018 01:00:00 9,7 -0,2 40 21 59 32 ZW 1018,4 - 0,0
18.01.2018 00:00:00 10,0 0,0 39 21 64 35 ZW 1018,5 - 0,0
17.01.2018 23:00:00 9,9 -0,1 37 20 59 32 ZW 1017,9 - 0,0
17.01.2018 22:00:00 10,3 0,3 36 19 55 30 ZW 1017,5 - 0,0
17.01.2018 21:00:00 10,6 -0,3 31 17 55 30 ZW 1016,6 - 0,0
17.01.2018 20:00:00 10,5 0,5 26 14 53 29 WZW 1016,0 - 0,0
17.01.2018 19:00:00 10,9 0,0 37 20 61 33 ZW 1014,7 18 0,0
17.01.2018 18:00:00 11,6 1,8 38 21 79 43 W 1013,6 - 0,0
17.01.2018 17:00:00 12,0 1,9 41 22 85 46 W 1012,5 - 0,0
17.01.2018 16:00:00 12,4 0,5 49 26 88 48 W 1010,7 - 0,0
17.01.2018 15:00:00 12,6 1,0 60 33 110 60 WZW 1009,2 - 0,0
17.01.2018 14:00:00 12,9 0,6 56 30 114 61 WZW 1008,4 - 0,0
17.01.2018 13:00:00 12,7 1,7 69 37 130 70 WZW 1007,5 18 0,0
17.01.2018 12:00:00 12,9 1,8 74 40 145 78 WZW 1006,7 - 0,0
17.01.2018 11:00:00 13,0 1,6 83 45 157 85 WZW 1005,6 - 0,0
17.01.2018 10:00:00 12,9 4,8 93 50 165 89 WZW 1004,8 18 0,0
17.01.2018 09:00:00 13,0 6,1 94 51 166 89 ZW 1005,1 - 0,0
17.01.2018 08:00:00 13,5 5,6 98 53 150 81 ZW 1004,0 - 0,0

tt = temperatuur
td = dauwpunt
ff = windsnelheid
fx = windstoten
dd = windrichting
ppp = luchtdruk
vv = zicht
rr = neerslag

Weerstations in de omgeving